Location: Grangia dell’Antolina
(44.6500°N, 6.9667°E)
Time: 06:26:54
(UTC+00:00)

Daily predictions for brighter satellites

Satellite Brightness Start Highest point End
(mag) Time Altitude Azimuth Time Altitude Azimuth Time Altitude Azimuth
Okean 2 4.3 18:16:17 10° NNE 18:19:52 29° ENE 18:23:25 10° SE
Cosmos 1869 Rocket 3.9 18:20:08 10° SSE 18:24:12 42° E 18:28:19 10° NNE
Lacrosse 5 rocket 1.6 18:21:46 10° SSW 18:25:58 49° SE 18:30:00 10° ENE
Cosmos 1452 Rocket 3.7 18:21:17 10° S 18:26:20 49° ESE 18:31:26 10° NNE
Cosmos 676 Rocket 4.3 18:21:10 10° NNW 18:26:23 73° WSW 18:31:37 10° SSE
Meteor 1-21 4.2 18:21:24 10° N 18:27:03 78° E 18:32:43 10° SSE
Cosmos 2333 Rocket 3.9 18:22:02 10° NW 18:27:18 37° WSW 18:32:32 10° S
Cosmos 1733 3.5 18:24:42 10° SSE 18:28:17 43° E 18:31:52 10° NNE
Meteor 2-10 4.1 18:29:08 10° SSE 18:33:57 50° E 18:38:53 10° NNE
Cosmos 2297 Rocket 2.7 18:28:56 10° S 18:34:04 38° ESE 18:39:14 10° NE
Cosmos 192 4.3 18:30:37 10° SSW 18:35:32 73° ESE 18:40:30 10° NNE
SJ-6B 3.3 18:32:36 10° SE 18:36:14 39° ENE 18:39:50 10° N
Cosmos 2233 Rocket 4.4 18:30:43 10° N 18:36:29 40° ENE 18:42:14 10° SE
NOSS 3-4 (A) 4.2 18:32:48 10° SSE 18:37:10 24° ESE 18:41:44 10° ENE
NOSS 3-4 (C) 4.2 18:32:59 10° SSE 18:37:18 23° ESE 18:41:48 10° ENE
USA 281 3.4 18:30:46 10° NNE 18:37:23 84° WNW 18:43:56 10° SSW
COSMOS 2428 3.0 18:32:40 10° NNW 18:38:25 76° WSW 18:44:08 10° SSE
Cosmos 1864 Rocket 4.5 18:32:22 10° N 18:38:32 65° E 18:44:35 10° SSE
Cosmos 1975 3.0 18:36:25 10° SSW 18:40:21 78° W 18:44:22 10° N
USA 267 3.4 18:36:57 10° SE 18:43:31 82° SW 18:50:09 10° NW
Cosmos 1271 Rocket 4.1 18:42:11 11° SE 18:44:32 17° E 18:47:02 10° NE
Cosmos 1741 Rocket 4.0 18:39:30 10° NNW 18:44:41 62° ENE 18:49:50 10° SSE
Cosmos 1459 Rocket 4.2 18:38:39 10° N 18:44:43 77° W 18:50:47 10° S
Cosmos 2219 4.3 18:43:15 10° SSE 18:47:23 21° E 18:51:31 10° NE
SL-14 R/B 3.4 18:43:47 10° N 18:47:32 48° ENE 18:51:14 10° SSE
Cosmos 2227 Rocket 2.9 18:45:32 10° SSE 18:50:26 31° ESE 18:55:21 10° NE
Cosmos 1703 Rocket 4.5 18:47:21 10° NNW 18:51:41 52° W 18:55:56 10° S
Cosmos 2061 Rocket 4.0 18:49:38 10° N 18:56:06 72° E 19:02:29 10° SSE
GEOS 3 Rocket 3.7 18:51:35 10° NE 18:57:01 88° SE 19:02:24 10° SW
NOSS 3-2 (A) 4.4 18:49:58 10° NW 18:57:34 71° WSW 19:06:18 10° SSE
CENTAUR R/B 3.7 18:50:49 10° NW 18:59:06 68° WSW 19:08:05 10° SSE
Resurs 01 Rocket 2.7 18:56:59 18° ESE 18:59:07 26° ENE 19:02:47 10° N
PLATFORM 4.4 18:57:36 10° SSW 19:01:15 67° ESE 19:04:57 10° NE
Cosmos 1725 Rocket 4.0 18:55:27 10° N 19:01:40 90° NNE 19:07:52 10° S
Cosmos 1733 Rocket 3.5 18:59:25 10° SSE 19:03:24 38° E 19:07:25 10° NNE
NOSS 0 Rocket 4.1 18:57:32 10° NNW 19:03:44 77° WSW 19:09:52 10° SSE
Cosmos 2098 Rocket 4.2 18:59:49 10° SSW 19:05:21 73° W 19:12:00 10° N
Cosmos 1726 2.1 19:02:53 10° SSW 19:06:23 77° W 19:09:55 10° N
SL-16 R/B 3.3 19:01:36 10° N 19:06:25 27° NE 19:09:05 20° E
Resurs 1-3 3.5 19:03:09 10° SSE 19:07:28 68° ENE 19:11:50 10° N
Cosmos 1302 Rocket 4.5 19:03:44 10° SSE 19:08:33 37° ESE 19:13:24 10° NE
NOSS 3-2 (C) 4.1 19:02:44 10° NW 19:10:19 85° NE 19:18:07 14° SE
Iridium 4 Rocket 3.0 19:07:44 10° N 19:11:54 81° W 19:16:06 10° S
Cosmos 1378 Rocket 4.3 19:09:17 10° N 19:13:16 32° ENE 19:14:39 26° ESE
BlueWalker 3 3.1 19:10:21 10° S 19:13:21 25° SE 19:13:21 25° SE
BREEZE-M DEB (TANK) 4.3 19:13:12 10° S 19:16:05 25° ESE 19:22:01 10° ENE
IRS-1C Rocket 4.3 19:12:37 18° SE 19:16:24 51° ENE 19:21:31 10° N
CSL-04 Rocket 3.7 19:14:45 10° SSE 19:20:18 85° ENE 19:25:52 10° NNW
Helios 1B 4.4 19:17:47 10° NNE 19:22:07 68° ESE 19:26:25 10° S
ISS -2.3 19:19:30 10° NW 19:22:28 28° NNE 19:23:36 23° NE
CZ-4C R/B 3.8 19:17:55 10° NNW 19:24:12 35° NE 19:28:32 21° E
USA 238 DEB 3.9 19:16:58 10° NW 19:24:21 84° NE 19:29:58 21° SE
USA 238 3.9 19:17:04 10° NW 19:24:27 84° NE 19:30:02 21° SE
Intercosmos 25 Rocket 4.1 19:19:14 10° N 19:26:24 66° ENE 19:29:14 23° SSE
Okean-O 2.5 19:23:24 19° SSE 19:26:31 76° ENE 19:30:57 10° N
Geosat 4.3 19:27:16 30° ESE 19:29:19 48° NE 19:34:09 10° NNW
CZ-4 R/B 3.5 19:26:06 10° SSW 19:29:21 26° W 19:32:38 10° NW
Okean O Rocket 3.1 19:25:31 10° SSW 19:29:35 36° W 19:33:40 10° NNW
SL-4 R/B 2.2 19:25:18 10° SW 19:29:56 65° SE 19:32:09 29° ENE
USA 186 2.8 19:27:56 11° S 19:30:42 42° W 19:33:43 10° NNW
Cosmos 1867 4.5 19:26:25 10° SW 19:31:41 50° NW 19:37:01 10° NNE
Cosmos 2221 Rocket 3.6 19:28:39 10° N 19:33:02 60° E 19:34:36 36° SE
ADEOS Rocket 4.5 19:32:34 20° ENE 19:34:19 22° NE 19:39:29 10° N
Cosmos 1766 3.1 19:31:18 10° S 19:35:05 86° W 19:38:55 10° N
Landsat 5 3.3 19:31:15 10° NNE 19:35:07 59° ESE 19:37:05 27° S
Cosmos 2237 Rocket 2.5 19:33:33 10° NNW 19:39:08 65° WSW 19:43:24 17° S
SJ 16-02 3.0 19:36:49 10° N 19:39:40 20° NE 19:39:40 20° NE
Cosmos 1464 Rocket 4.4 19:34:04 10° N 19:40:07 42° ENE 19:42:02 34° ESE
Cosmos 1447 Rocket 4.4 19:38:56 10° S 19:45:10 89° W 19:51:23 10° N
MetOp-A 4.4 19:44:23 40° ESE 19:45:32 47° ENE 19:50:27 10° N
Cosmos 2346 Rocket 4.5 19:43:03 19° SSE 19:47:22 57° E 19:53:26 10° NNE
Cosmos 1891 Rocket 4.5 19:44:07 10° N 19:50:15 63° E 19:52:54 35° SSE
Meteor 1-22 Rocket 4.4 19:51:58 27° SSE 19:55:18 59° E 20:01:15 10° NNE
Meteor 2-15 4.4 19:50:32 10° N 19:56:38 61° ENE 19:58:23 44° SE
Meteor 2-8 Rocket 4.5 19:53:34 10° N 19:59:39 58° ENE 20:01:05 47° SE
FALCON 9 R/B 3.7 19:37:47 10° W 20:00:54 50° SSW 20:04:12 35° SE
SPOT 1/Viking Rocket 3.8 20:01:45 27° S 20:04:35 65° WSW 20:09:47 10° NNW
Lacrosse 5 rocket 3.0 20:01:07 10° W 20:04:57 32° NNW 20:07:36 16° NNE
Terra 3.4 20:07:21 21° NE 20:07:21 21° NE 20:09:49 10° NNE
Meteor 1-15 Rocket 4.2 20:03:18 10° S 20:09:04 88° W 20:15:00 10° N
Cosmos 1943 4.4 20:05:46 10° N 20:10:25 26° NE 20:10:26 26° NE
Cosmos 968 Rocket 4.2 20:11:23 10° NNW 20:16:20 48° WSW 20:18:09 33° SSW
Cosmos 1513 Rocket 4.4 20:10:47 10° N 20:16:54 88° W 20:18:53 46° S
Cosmos 2297 Rocket 3.7 20:12:57 10° WSW 20:18:06 36° NW 20:23:18 10° NNE
Meteor 1-24 Rocket 3.7 20:12:48 10° N 20:18:48 83° ENE 20:19:57 61° SSE
Cosmos 1271 Rocket 4.4 20:16:50 11° SW 20:20:01 32° WNW 20:23:25 10° N
ERS-1 Rocket 3.9 20:23:06 36° NE 20:23:06 36° NE 20:26:41 10° N
BREEZE-M DEB (TANK) 4.1 20:21:08 10° WNW 20:23:48 33° NW 20:23:48 33° NW
Cosmos 2082 3.7 20:26:24 62° NE 20:26:24 62° NE 20:31:09 10° NNE
NOSS 3-4 (A) 3.7 20:21:51 10° SW 20:27:25 61° NW 20:33:30 10° NNE
NOSS 3-4 (C) 3.7 20:21:59 10° SW 20:27:32 61° NW 20:33:36 10° NNE
Cosmos 2219 3.7 20:25:30 10° SW 20:31:02 59° WNW 20:36:36 10° NNE
Cosmos 1470 4.1 20:32:42 39° NW 20:32:42 39° NW 20:35:49 10° N
Cosmos 2227 Rocket 3.3 20:28:57 10° SW 20:34:18 43° WNW 20:39:42 10° NNE
Resurs 01 Rocket 3.1 20:34:30 29° WSW 20:35:27 33° W 20:39:28 10° NNW
Ariane Rocket 3.1 20:36:56 71° NNW 20:36:56 71° NNW 20:41:27 10° NNW
H-2A R/B 3.5 20:39:28 45° NNW 20:39:28 45° NNW 20:42:35 10° NNW
Cosmos 2034 Rocket 3.8 20:36:57 10° N 20:43:08 85° ENE 20:43:08 85° ENE
SPOT 5 3.6 20:46:26 46° N 20:46:26 46° N 20:49:54 10° NNW
ATLAS 3B R/B 4.1 20:38:56 10° NNW 20:45:21 29° NNE 20:47:17 26° NE
Spot 2 Rocket 4.3 20:48:26 46° N 20:48:26 46° N 20:52:04 10° N
Tsikada Rocket 4.4 20:51:40 48° NE 20:51:40 48° NE 20:56:11 10° NNE
SL-16 R/B 2.7 20:45:19 10° NW 20:50:51 53° WSW 20:50:58 53° WSW
ISS -0.4 20:56:11 10° WNW 20:56:32 12° WNW 20:56:32 12° WNW
BREEZE-M DEB 4.2 20:46:11 10° WSW 20:59:58 84° SSE 21:00:01 84° SSE
SL-4 R/B 4.2 21:05:03 10° W 21:07:26 27° WNW 21:07:26 27° WNW
CZ-4C R/B 2.9 21:06:03 10° NW 21:13:25 78° WSW 21:13:42 77° SSW
Cosmos 2263 Rocket 3.7 21:20:59 29° N 21:20:59 29° N 21:23:42 10° NNE
SJ 16-02 3.5 21:14:36 10° NNW 21:16:34 24° NW 21:16:34 24° NW
ADEOS Rocket 3.3 21:19:30 73° NW 21:19:30 73° NW 21:26:00 10° NNW
SME Rocket 4.4 21:20:30 85° NNE 21:20:30 85° NNE 21:26:32 10° NNW
BREEZE-M DEB (TANK) 4.3 21:16:38 10° WNW 21:19:41 36° WNW 21:19:41 36° WNW
Terra 4.1 21:46:05 22° NW 21:46:05 22° NW 21:47:56 10° NNW
ATLAS 2AS CENTAUR R/B 4.1 22:03:28 31° NNE 22:03:28 31° NNE 22:06:58 10° NE
ATLAS 3B R/B 3.7 22:29:30 10° NW 22:34:32 46° NNW 22:34:32 46° NNW
Cosmos 2344 4.2 22:41:26 10° NW 22:48:53 70° NW 22:48:53 70° NW
ATLAS 2AS CENTAUR R/B 4.4 23:50:49 28° NW 23:51:31 28° NNW 23:57:39 10° NNE
